QPF
0.00 0.00 0.00 0.00 0.00 0.00 0.00 0.00 0.00 0.00 0.00 0.00 0.00 0.00 0.00 0.00 0.00 0.00 0.00 0.00 0.01 0.03 0.03 0.05 0.06 0.07 0.10 0.11 0.11 0.12 0.12 0.12 0.12 0.11 0.12 0.11 0.09 0.08 0.09 0.07 0.06 0.06 0.06 0.04
0.00 0.00 0.00 0.00 0.00 0.00 0.00 0.00 0.00 0.00 0.00 0.00 0.00 0.00 0.00 0.00 0.00 0.00 0.00 0.00 0.01 0.02 0.01 0.02 0.05 0.05 0.06 0.08 0.09 0.11 0.12 0.11 0.12 0.11 0.13 0.12 0.10 0.09 0.08 0.07 0.06 0.05 0.04 0.03
0.00 0.00 0.00 0.00 0.00 0.00 0.00 0.00 0.00 0.00 0.00 0.00 0.00 0.00 0.00 0.00 0.00 0.00 0.00 0.00 0.00 0.01 0.01 0.02 0.03 0.03 0.04 0.06 0.07 0.09 0.11 0.12 0.12 0.11 0.12 0.13 0.10 0.07 0.06 0.06 0.06 0.04 0.02 0.02
0.00 0.00 0.00 0.00 0.00 0.00 0.00 0.00 0.00 0.00 0.00 0.00 0.00 0.00 0.00 0.00 0.00 0.00 0.00 0.00 0.00 0.00 0.01 0.02 0.03 0.03 0.04 0.05 0.07 0.11 0.11 0.12 0.11 0.09 0.10 0.10 0.08 0.06 0.06 0.06 0.05 0.04 0.02 0.01
0.00 0.00 0.00 0.00 0.00 0.00 0.00 0.00 0.00 0.00 0.00 0.00 0.00 0.00 0.00 0.00 0.00 0.00 0.00 0.00 0.00 0.00 0.01 0.01 0.02 0.04 0.07 0.06 0.08 0.12 0.12 0.10 0.08 0.08 0.09 0.11 0.08 0.08 0.08 0.06 0.05 0.04 0.02 0.01
0.00 0.00 0.00 0.00 0.00 0.00 0.00 0.00 0.00 0.00 0.00 0.00 0.00 0.00 0.00 0.00 0.00 0.00 0.00 0.00 0.00 0.00 0.00 0.01 0.01 0.04 0.06 0.07 0.11 0.13 0.11 0.09 0.08 0.07 0.08 0.10 0.09 0.09 0.08 0.07 0.05 0.04 0.02 0.01
0.00 0.00 0.00 0.00 0.00 0.00 0.00 0.00 0.00 0.00 0.00 0.00 0.00 0.00 0.00 0.00 0.00 0.00 0.00 0.00 0.00 0.00 0.00 0.01 0.01 0.02 0.03 0.05 0.09 0.10 0.10 0.09 0.08 0.08 0.08 0.08 0.08 0.08 0.07 0.06 0.05 0.03 0.02 0.01
0.00 0.00 0.00 0.00 0.00 0.00 0.00 0.00 0.00 0.00 0.00 0.00 0.00 0.00 0.00 0.00 0.00 0.00 0.00 0.00 0.00 0.00 0.01 0.01 0.01 0.01 0.02 0.03 0.06 0.07 0.08 0.08 0.07 0.08 0.07 0.08 0.08 0.07 0.06 0.05 0.03 0.02 0.02 0.01
0.00 0.00 0.00 0.00 0.00 0.00 0.00 0.00 0.00 0.00 0.00 0.00 0.00 0.00 0.00 0.00 0.00 0.00 0.00 0.00 0.00 0.00 0.00 0.01 0.01 0.01 0.02 0.02 0.03 0.05 0.07 0.08 0.07 0.08 0.07 0.07 0.07 0.07 0.07 0.04 0.03 0.01 0.01 0.01
0.00 0.00 0.00 0.00 0.00 0.00 0.00 0.00 0.00 0.00 0.00 0.00 0.00 0.00 0.00 0.00 0.00 0.00 0.00 0.00 0.00 0.00 0.00 0.00 0.01 0.01 0.01 0.01 0.02 0.05 0.09 0.12 0.09 0.08 0.08 0.07 0.08 0.08 0.07 0.04 0.03 0.02 0.01 0.01
0.00 0.00 0.00 0.00 0.00 0.00 0.00 0.00 0.00 0.00 0.00 0.00 0.00 0.00 0.00 0.00 0.00 0.00 0.00 0.00 0.00 0.00 0.00 0.00 0.00 0.01 0.01 0.01 0.01 0.02 0.05 0.08 0.08 0.09 0.09 0.08 0.09 0.07 0.06 0.04 0.03 0.02 0.02 0.01
0.00 0.00 0.00 0.00 0.00 0.00 0.00 0.00 0.00 0.00 0.00 0.00 0.00 0.00 0.00 0.00 0.00 0.00 0.00 0.00 0.00 0.00 0.00 0.00 0.00 0.00 0.00 0.00 0.01 0.01 0.02 0.04 0.07 0.07 0.06 0.07 0.08 0.07 0.06 0.05 0.03 0.02 0.02 0.01
0.00 0.00 0.00 0.00 0.00 0.00 0.00 0.00 0.00 0.00 0.00 0.00 0.00 0.00 0.00 0.00 0.00 0.00 0.00 0.00 0.00 0.00 0.00 0.00 0.00 0.00 0.00 0.00 0.01 0.01 0.01 0.03 0.05 0.06 0.04 0.04 0.08 0.08 0.07 0.04 0.03 0.03 0.02 0.02
0.00 0.00 0.00 0.00 0.00 0.00 0.00 0.00 0.00 0.00 0.00 0.00 0.00 0.00 0.00 0.00 0.00 0.00 0.00 0.00 0.00 0.00 0.00 0.00 0.00 0.00 0.00 0.00 0.01 0.01 0.01 0.02 0.03 0.05 0.05 0.05 0.08 0.09 0.07 0.04 0.04 0.03 0.03 0.03
0.00 0.00 0.00 0.00 0.00 0.00 0.00 0.00 0.00 0.00 0.00 0.00 0.00 0.00 0.00 0.00 0.00 0.00 0.00 0.00 0.00 0.00 0.00 0.00 0.00 0.01 0.01 0.01 0.01 0.01 0.02 0.02 0.03 0.04 0.04 0.05 0.06 0.08 0.06 0.04 0.05 0.05 0.04 0.04
0.00 0.00 0.00 0.00 0.00 0.00 0.00 0.00 0.00 0.00 0.00 0.00 0.00 0.00 0.00 0.00 0.00 0.00 0.00 0.00 0.00 0.00 0.00 0.00 0.00 0.01 0.01 0.01 0.01 0.02 0.03 0.03 0.03 0.04 0.03 0.04 0.05 0.06 0.06 0.06 0.06 0.05 0.05 0.05
0.00 0.00 0.00 0.00 0.00 0.00 0.00 0.00 0.00 0.00 0.00 0.00 0.00 0.00 0.00 0.00 0.00 0.00 0.00 0.00 0.00 0.00 0.00 0.00 0.00 0.00 0.01 0.01 0.01 0.02 0.02 0.02 0.03 0.03 0.04 0.04 0.04 0.05 0.06 0.06 0.06 0.05 0.04 0.04
0.00 0.00 0.00 0.00 0.00 0.00 0.00 0.00 0.00 0.00 0.00 0.00 0.00 0.00 0.00 0.00 0.00 0.00 0.00 0.00 0.00 0.00 0.00 0.00 0.01 0.01 0.01 0.01 0.01 0.02 0.02 0.03 0.03 0.04 0.04 0.04 0.05 0.05 0.05 0.05 0.04 0.03 0.03 0.03
0.00 0.00 0.01 0.00 0.00 0.00 0.00 0.00 0.00 0.00 0.00 0.00 0.00 0.00 0.00 0.00 0.00 0.01 0.01 0.00 0.00 0.01 0.01 0.01 0.01 0.02 0.01 0.01 0.02 0.03 0.03 0.03 0.03 0.03 0.03 0.03 0.03 0.03 0.03 0.03 0.03 0.03 0.02 0.03
0.01 0.01 0.01 0.01 0.01 0.01 0.01 0.01 0.01 0.01 0.01 0.00 0.00 0.00 0.00 0.01 0.01 0.02 0.01 0.00 0.01 0.01 0.01 0.01 0.01 0.01 0.02 0.02 0.02 0.03 0.03 0.03 0.04 0.04 0.04 0.04 0.03 0.03 0.03 0.02 0.02 0.02 0.02 0.02
0.02 0.02 0.02 0.01 0.01 0.01 0.00 0.01 0.01 0.02 0.01 0.01 0.01 0.01 0.01 0.01 0.01 0.02 0.02 0.02 0.02 0.02 0.02 0.02 0.01 0.02 0.02 0.02 0.03 0.03 0.04 0.04 0.05 0.05 0.04 0.03 0.03 0.03 0.03 0.02 0.02 0.01 0.02 0.02
0.02 0.02 0.02 0.02 0.02 0.01 0.00 0.00 0.02 0.03 0.01 0.01 0.01 0.01 0.01 0.01 0.02 0.02 0.03 0.03 0.02 0.03 0.03 0.02 0.02 0.02 0.02 0.02 0.02 0.03 0.04 0.04 0.04 0.03 0.03 0.03 0.02 0.02 0.02 0.02 0.01 0.01 0.01 0.01
0.03 0.03 0.03 0.02 0.02 0.01 0.01 0.01 0.02 0.02 0.02 0.01 0.01 0.01 0.01 0.01 0.02 0.03 0.03 0.03 0.03 0.03 0.03 0.03 0.02 0.02 0.02 0.03 0.03 0.03 0.03 0.02 0.02 0.02 0.02 0.01 0.01 0.01 0.01 0.01 0.01 0.01 0.01 0.00
0.04 0.04 0.04 0.04 0.03 0.02 0.02 0.02 0.02 0.02 0.03 0.03 0.03 0.03 0.04 0.04 0.04 0.03 0.04 0.04 0.03 0.04 0.04 0.04 0.05 0.05 0.05 0.04 0.03 0.03 0.02 0.01 0.01 0.01 0.01 0.01 0.01 0.01 0.00 0.00 0.00 0.00 0.00 0.00
0.08 0.08 0.08 0.08 0.07 0.05 0.04 0.04 0.04 0.04 0.04 0.04 0.05 0.05 0.06 0.06 0.05 0.05 0.05 0.05 0.05 0.04 0.04 0.04 0.05 0.06 0.06 0.05 0.03 0.02 0.01 0.01 0.01 0.01 0.01 0.00 0.00 0.00 0.00 0.00 0.00 0.00 0.00 0.00
0.13 0.15 0.13 0.12 0.10 0.07 0.06 0.06 0.06 0.08 0.08 0.07 0.09 0.08 0.08 0.07 0.07 0.08 0.09 0.08 0.06 0.05 0.05 0.05 0.05 0.06 0.06 0.04 0.02 0.01 0.01 0.01 0.01 0.00 0.00 0.00 0.00 0.00 0.00 0.00 0.00 0.00 0.00 0.00
MSLP
1010.43 1010.79 1011.01 1011.09 1011.07 1010.95 1010.77 1010.53 1010.26 1009.95 1009.60 1009.22 1008.84 1008.46 1008.12 1007.85 1007.67 1007.59 1007.59 1007.68 1007.82 1007.99 1008.17 1008.36 1008.58 1008.83 1009.14 1009.54 1010.03 1010.61 1011.25 1011.94 1012.62 1013.26 1013.85 1014.36 1014.81 1015.20 1015.55 1015.88 1016.20 1016.50 1016.77 1017.00
1010.57 1010.86 1011.01 1011.04 1011.00 1010.91 1010.79 1010.64 1010.46 1010.24 1009.95 1009.61 1009.22 1008.80 1008.40 1008.06 1007.80 1007.65 1007.60 1007.64 1007.74 1007.87 1008.01 1008.15 1008.29 1008.47 1008.72 1009.07 1009.54 1010.12 1010.82 1011.59 1012.38 1013.14 1013.84 1014.46 1014.97 1015.39 1015.75 1016.05 1016.33 1016.59 1016.83 1017.05
1010.49 1010.69 1010.78 1010.79 1010.76 1010.73 1010.70 1010.67 1010.61 1010.48 1010.27 1009.95 1009.54 1009.07 1008.59 1008.16 1007.82 1007.60 1007.50 1007.50 1007.58 1007.70 1007.82 1007.92 1008.02 1008.14 1008.33 1008.62 1009.06 1009.65 1010.38 1011.22 1012.11 1012.99 1013.80 1014.51 1015.10 1015.56 1015.92 1016.21 1016.45 1016.68 1016.89 1017.09
1010.17 1010.29 1010.33 1010.34 1010.36 1010.42 1010.52 1010.63 1010.70 1010.69 1010.54 1010.24 1009.80 1009.27 1008.69 1008.16 1007.72 1007.42 1007.28 1007.27 1007.35 1007.48 1007.60 1007.70 1007.78 1007.87 1008.01 1008.25 1008.65 1009.22 1009.97 1010.85 1011.81 1012.78 1013.69 1014.49 1015.14 1015.65 1016.02 1016.30 1016.52 1016.71 1016.90 1017.10
1009.66 1009.71 1009.72 1009.75 1009.84 1010.02 1010.26 1010.53 1010.74 1010.84 1010.76 1010.47 1010.00 1009.38 1008.71 1008.06 1007.53 1007.16 1006.98 1006.96 1007.07 1007.23 1007.39 1007.52 1007.61 1007.68 1007.79 1007.99 1008.34 1008.88 1009.61 1010.51 1011.51 1012.54 1013.52 1014.38 1015.09 1015.63 1016.01 1016.29 1016.49 1016.67 1016.86 1017.06
1009.04 1009.03 1009.02 1009.09 1009.26 1009.56 1009.96 1010.38 1010.73 1010.93 1010.90 1010.63 1010.11 1009.42 1008.64 1007.89 1007.27 1006.84 1006.63 1006.62 1006.77 1006.99 1007.21 1007.40 1007.53 1007.61 1007.70 1007.87 1008.17 1008.67 1009.36 1010.24 1011.24 1012.29 1013.30 1014.20 1014.94 1015.50 1015.90 1016.18 1016.38 1016.56 1016.75 1016.97
1008.42 1008.35 1008.33 1008.43 1008.69 1009.11 1009.64 1010.19 1010.66 1010.94 1010.96 1010.69 1010.13 1009.37 1008.51 1007.68 1006.98 1006.50 1006.28 1006.29 1006.48 1006.78 1007.09 1007.35 1007.53 1007.65 1007.75 1007.90 1008.17 1008.61 1009.25 1010.08 1011.04 1012.07 1013.07 1013.97 1014.72 1015.30 1015.71 1015.98 1016.19 1016.37 1016.57 1016.82
1007.86 1007.75 1007.73 1007.86 1008.18 1008.68 1009.31 1009.96 1010.51 1010.85 1010.90 1010.62 1010.04 1009.24 1008.32 1007.42 1006.68 1006.18 1005.96 1006.00 1006.25 1006.62 1007.02 1007.37 1007.63 1007.81 1007.93 1008.08 1008.32 1008.71 1009.29 1010.05 1010.95 1011.92 1012.89 1013.77 1014.50 1015.07 1015.47 1015.75 1015.96 1016.15 1016.36 1016.63
1007.42 1007.28 1007.25 1007.40 1007.76 1008.31 1008.98 1009.67 1010.26 1010.62 1010.68 1010.41 1009.81 1008.99 1008.05 1007.14 1006.39 1005.89 1005.69 1005.77 1006.08 1006.53 1007.01 1007.45 1007.79 1008.03 1008.20 1008.36 1008.59 1008.94 1009.46 1010.15 1010.98 1011.88 1012.78 1013.61 1014.32 1014.87 1015.26 1015.54 1015.74 1015.93 1016.15 1016.42
1007.11 1006.95 1006.93 1007.08 1007.44 1007.98 1008.64 1009.32 1009.89 1010.24 1010.29 1010.02 1009.43 1008.62 1007.71 1006.82 1006.10 1005.64 1005.48 1005.60 1005.97 1006.48 1007.03 1007.55 1007.97 1008.28 1008.50 1008.70 1008.93 1009.26 1009.74 1010.36 1011.12 1011.94 1012.77 1013.55 1014.21 1014.72 1015.10 1015.37 1015.57 1015.75 1015.96 1016.22
1006.92 1006.78 1006.75 1006.89 1007.21 1007.70 1008.30 1008.90 1009.41 1009.71 1009.73 1009.45 1008.89 1008.13 1007.28 1006.47 1005.82 1005.42 1005.31 1005.49 1005.89 1006.44 1007.05 1007.62 1008.10 1008.48 1008.76 1009.00 1009.26 1009.59 1010.05 1010.63 1011.32 1012.08 1012.84 1013.55 1014.16 1014.65 1015.00 1015.25 1015.45 1015.62 1015.80 1016.04
1006.85 1006.73 1006.71 1006.82 1007.09 1007.48 1007.97 1008.45 1008.84 1009.05 1009.02 1008.74 1008.22 1007.53 1006.77 1006.07 1005.52 1005.21 1005.17 1005.39 1005.82 1006.39 1007.02 1007.62 1008.14 1008.57 1008.91 1009.20 1009.50 1009.86 1010.31 1010.87 1011.52 1012.22 1012.92 1013.58 1014.14 1014.60 1014.93 1015.18 1015.36 1015.52 1015.69 1015.89
1006.87 1006.80 1006.79 1006.87 1007.06 1007.34 1007.67 1007.99 1008.23 1008.33 1008.23 1007.93 1007.45 1006.85 1006.21 1005.64 1005.21 1005.00 1005.03 1005.28 1005.73 1006.30 1006.92 1007.52 1008.05 1008.51 1008.90 1009.25 1009.60 1009.99 1010.46 1011.02 1011.64 1012.30 1012.96 1013.57 1014.10 1014.53 1014.86 1015.10 1015.29 1015.45 1015.60 1015.78
1006.99 1006.98 1007.00 1007.05 1007.16 1007.30 1007.46 1007.59 1007.65 1007.60 1007.42 1007.09 1006.65 1006.14 1005.63 1005.19 1004.89 1004.78 1004.88 1005.16 1005.60 1006.15 1006.73 1007.31 1007.84 1008.31 1008.73 1009.12 1009.52 1009.96 1010.46 1011.03 1011.64 1012.28 1012.91 1013.48 1013.99 1014.41 1014.73 1014.99 1015.19 1015.37 1015.53 1015.70
1007.21 1007.28 1007.33 1007.36 1007.37 1007.37 1007.35 1007.28 1007.15 1006.95 1006.66 1006.29 1005.88 1005.45 1005.05 1004.75 1004.58 1004.57 1004.73 1005.03 1005.46 1005.96 1006.49 1007.02 1007.52 1007.99 1008.42 1008.85 1009.30 1009.79 1010.32 1010.90 1011.52 1012.14 1012.75 1013.31 1013.80 1014.21 1014.55 1014.83 1015.07 1015.28 1015.48 1015.67
1007.54 1007.68 1007.76 1007.77 1007.70 1007.56 1007.36 1007.10 1006.78 1006.41 1006.01 1005.60 1005.20 1004.83 1004.54 1004.36 1004.31 1004.39 1004.60 1004.92 1005.32 1005.78 1006.25 1006.72 1007.18 1007.62 1008.06 1008.52 1009.00 1009.52 1010.09 1010.69 1011.31 1011.93 1012.52 1013.07 1013.55 1013.98 1014.34 1014.66 1014.95 1015.21 1015.46 1015.69
1007.95 1008.15 1008.25 1008.24 1008.09 1007.83 1007.47 1007.02 1006.53 1006.01 1005.51 1005.04 1004.64 1004.34 1004.14 1004.07 1004.12 1004.28 1004.54 1004.87 1005.25 1005.66 1006.07 1006.49 1006.90 1007.31 1007.74 1008.21 1008.71 1009.26 1009.86 1010.48 1011.11 1011.72 1012.31 1012.84 1013.33 1013.77 1014.16 1014.52 1014.87 1015.20 1015.52 1015.82
1008.38 1008.63 1008.74 1008.69 1008.47 1008.10 1007.60 1007.01 1006.37 1005.73 1005.14 1004.64 1004.25 1003.99 1003.88 1003.90 1004.05 1004.29 1004.59 1004.95 1005.31 1005.68 1006.05 1006.41 1006.77 1007.16 1007.58 1008.04 1008.56 1009.13 1009.74 1010.37 1011.01 1011.62 1012.20 1012.73 1013.22 1013.67 1014.09 1014.50 1014.90 1015.30 1015.69 1016.06
1008.77 1009.02 1009.11 1009.02 1008.74 1008.28 1007.67 1006.97 1006.23 1005.51 1004.88 1004.36 1004.00 1003.81 1003.78 1003.90 1004.13 1004.45 1004.81 1005.19 1005.56 1005.91 1006.24 1006.56 1006.89 1007.25 1007.65 1008.11 1008.63 1009.21 1009.83 1010.47 1011.11 1011.72 1012.29 1012.82 1013.31 1013.77 1014.21 1014.65 1015.10 1015.56 1016.01 1016.45
1009.03 1009.24 1009.28 1009.14 1008.79 1008.26 1007.59 1006.83 1006.05 1005.31 1004.68 1004.20 1003.90 1003.78 1003.85 1004.07 1004.40 1004.80 1005.22 1005.64 1006.02 1006.37 1006.68 1006.98 1007.28 1007.61 1008.00 1008.45 1008.97 1009.56 1010.18 1010.81 1011.45 1012.05 1012.61 1013.14 1013.62 1014.08 1014.54 1015.00 1015.48 1015.97 1016.47 1016.96
1009.10 1009.22 1009.19 1008.97 1008.57 1008.00 1007.31 1006.55 1005.78 1005.09 1004.51 1004.11 1003.91 1003.91 1004.08 1004.41 1004.84 1005.33 1005.82 1006.28 1006.70 1007.06 1007.37 1007.65 1007.94 1008.26 1008.63 1009.07 1009.58 1010.15 1010.76 1011.39 1012.01 1012.60 1013.16 1013.66 1014.14 1014.59 1015.04 1015.51 1016.00 1016.51 1017.03 1017.55
1008.95 1008.95 1008.82 1008.53 1008.08 1007.50 1006.82 1006.11 1005.43 1004.83 1004.38 1004.11 1004.04 1004.17 1004.48 1004.92 1005.46 1006.04 1006.60 1007.12 1007.57 1007.94 1008.26 1008.54 1008.82 1009.12 1009.47 1009.89 1010.38 1010.93 1011.53 1012.13 1012.73 1013.31 1013.84 1014.33 1014.78 1015.22 1015.65 1016.10 1016.58 1017.08 1017.61 1018.13
1008.60 1008.47 1008.22 1007.86 1007.38 1006.81 1006.20 1005.58 1005.03 1004.58 1004.29 1004.19 1004.29 1004.57 1005.02 1005.59 1006.23 1006.89 1007.52 1008.09 1008.57 1008.97 1009.30 1009.58 1009.85 1010.13 1010.46 1010.85 1011.30 1011.82 1012.37 1012.95 1013.51 1014.05 1014.56 1015.02 1015.45 1015.85 1016.26 1016.68 1017.13 1017.62 1018.13 1018.64
1008.15 1007.87 1007.52 1007.09 1006.59 1006.07 1005.54 1005.06 1004.67 1004.41 1004.32 1004.41 1004.68 1005.12 1005.70 1006.38 1007.12 1007.84 1008.53 1009.14 1009.66 1010.08 1010.41 1010.69 1010.94 1011.20 1011.50 1011.84 1012.25 1012.71 1013.21 1013.73 1014.25 1014.74 1015.21 1015.63 1016.02 1016.40 1016.77 1017.16 1017.58 1018.04 1018.53 1019.02
1007.68 1007.28 1006.84 1006.36 1005.88 1005.42 1005.01 1004.68 1004.47 1004.41 1004.51 1004.79 1005.23 1005.81 1006.51 1007.28 1008.08 1008.86 1009.58 1010.22 1010.76 1011.19 1011.52 1011.80 1012.03 1012.26 1012.51 1012.80 1013.14 1013.53 1013.96 1014.41 1014.86 1015.30 1015.71 1016.09 1016.44 1016.78 1017.13 1017.49 1017.89 1018.32 1018.78 1019.26
1007.32 1006.83 1006.33 1005.84 1005.39 1005.01 1004.72 1004.56 1004.53 1004.65 1004.93 1005.37 1005.94 1006.64 1007.42 1008.25 1009.09 1009.89 1010.63 1011.27 1011.81 1012.24 1012.58 1012.84 1013.05 1013.24 1013.44 1013.67 1013.93 1014.23 1014.58 1014.94 1015.32 1015.68 1016.04 1016.38 1016.70 1017.01 1017.34 1017.68 1018.06 1018.48 1018.92 1019.39
Thickness
5791 5783 5780 5787 5792 5790 5786 5782 5783 5793 5805 5800 5798 5797 5800 5799 5793 5785 5779 5772 5765 5761 5759 5754 5748 5744 5740 5736 5733 5730 5728 5727 5727 5725 5725 5724 5724 5726 5727 5727 5727 5727 5727 5727
5777 5776 5790 5795 5791 5784 5781 5778 5785 5795 5802 5796 5795 5796 5801 5796 5791 5786 5780 5772 5766 5761 5755 5750 5746 5742 5739 5735 5733 5730 5728 5727 5727 5726 5726 5725 5724 5724 5726 5726 5725 5725 5725 5725
5774 5787 5794 5785 5779 5775 5778 5779 5783 5784 5794 5798 5791 5792 5794 5795 5791 5786 5782 5777 5771 5763 5756 5750 5746 5742 5739 5735 5732 5731 5728 5727 5726 5725 5724 5722 5721 5721 5722 5722 5723 5723 5723 5724
5779 5791 5783 5776 5775 5777 5773 5789 5786 5783 5780 5786 5784 5772 5791 5793 5786 5784 5781 5777 5771 5765 5759 5752 5746 5742 5739 5736 5734 5731 5728 5726 5724 5724 5723 5722 5720 5720 5721 5722 5723 5722 5722 5722
5775 5782 5776 5771 5778 5782 5782 5790 5785 5782 5779 5777 5785 5774 5790 5793 5784 5785 5783 5779 5774 5768 5761 5753 5748 5743 5740 5736 5733 5730 5727 5725 5724 5723 5723 5721 5721 5722 5722 5721 5720 5720 5721 5721
5782 5787 5784 5783 5789 5788 5786 5780 5779 5780 5780 5764 5777 5770 5777 5794 5789 5788 5786 5780 5774 5769 5762 5755 5750 5744 5739 5735 5732 5728 5725 5723 5722 5722 5721 5720 5720 5720 5719 5718 5718 5719 5721 5721
5764 5775 5785 5788 5776 5781 5778 5765 5757 5755 5760 5765 5781 5770 5780 5796 5797 5793 5787 5781 5775 5769 5763 5756 5749 5743 5738 5734 5731 5728 5724 5721 5721 5721 5720 5721 5719 5719 5718 5718 5718 5719 5721 5721
5755 5761 5780 5785 5777 5775 5775 5772 5753 5746 5754 5771 5777 5771 5789 5800 5799 5796 5792 5786 5777 5770 5765 5758 5752 5745 5740 5735 5731 5728 5724 5722 5721 5721 5720 5720 5719 5719 5720 5720 5720 5720 5721 5722
5763 5763 5783 5786 5789 5783 5772 5772 5787 5771 5766 5759 5773 5782 5794 5797 5793 5791 5788 5782 5776 5773 5767 5760 5754 5748 5742 5737 5733 5729 5725 5723 5723 5722 5721 5720 5720 5720 5721 5720 5719 5721 5720 5721
5772 5758 5775 5781 5783 5782 5784 5783 5772 5763 5746 5745 5763 5772 5780 5786 5788 5788 5784 5780 5777 5774 5768 5762 5756 5751 5747 5741 5736 5732 5729 5726 5724 5723 5722 5721 5720 5720 5720 5719 5718 5719 5719 5718
5771 5756 5766 5770 5766 5770 5768 5768 5769 5771 5768 5751 5748 5769 5798 5793 5793 5789 5787 5784 5780 5776 5771 5765 5759 5754 5750 5745 5739 5734 5731 5728 5725 5724 5723 5722 5721 5720 5718 5717 5717 5717 5717 5716
5764 5760 5758 5768 5782 5784 5779 5776 5771 5756 5755 5759 5756 5772 5803 5800 5798 5794 5790 5785 5781 5777 5773 5767 5761 5755 5751 5746 5742 5737 5734 5731 5728 5726 5723 5721 5720 5718 5717 5716 5716 5716 5715 5715
5753 5747 5740 5751 5759 5767 5768 5774 5775 5771 5764 5760 5756 5771 5798 5796 5793 5792 5787 5782 5778 5774 5771 5766 5761 5755 5751 5748 5744 5740 5737 5734 5731 5727 5723 5720 5719 5718 5716 5716 5715 5714 5713 5712
5746 5742 5742 5745 5754 5762 5759 5765 5768 5764 5760 5761 5766 5776 5787 5788 5786 5786 5783 5779 5775 5771 5767 5764 5758 5754 5752 5749 5745 5742 5738 5736 5732 5728 5724 5720 5718 5717 5715 5714 5712 5711 5710 5709
5736 5733 5740 5748 5755 5757 5757 5759 5761 5758 5763 5763 5772 5779 5788 5790 5788 5785 5781 5777 5772 5767 5763 5760 5756 5752 5749 5746 5744 5742 5739 5736 5733 5728 5724 5720 5718 5716 5714 5712 5710 5708 5707 5706
5724 5720 5726 5730 5743 5745 5744 5752 5756 5757 5761 5764 5768 5774 5793 5792 5788 5782 5778 5773 5768 5764 5761 5758 5754 5749 5746 5743 5741 5739 5737 5735 5732 5727 5723 5720 5717 5714 5711 5708 5706 5704 5702 5701
5714 5709 5708 5716 5733 5729 5727 5748 5753 5756 5764 5763 5761 5776 5785 5779 5777 5775 5774 5771 5767 5764 5760 5756 5752 5747 5744 5742 5739 5736 5733 5731 5727 5723 5720 5717 5714 5710 5707 5704 5701 5698 5696 5694
5698 5696 5699 5706 5708 5695 5736 5759 5756 5753 5760 5768 5769 5774 5774 5773 5771 5771 5770 5768 5764 5761 5757 5753 5749 5744 5741 5739 5736 5733 5729 5725 5721 5717 5714 5711 5708 5704 5701 5698 5694 5691 5689 5686
5696 5688 5688 5693 5694 5705 5729 5741 5742 5738 5744 5760 5761 5764 5763 5762 5758 5757 5760 5760 5758 5755 5751 5747 5744 5740 5737 5734 5731 5727 5722 5718 5713 5709 5706 5704 5701 5697 5693 5689 5686 5683 5679 5675
5685 5682 5679 5682 5677 5684 5716 5733 5738 5731 5727 5747 5750 5751 5751 5749 5745 5747 5747 5747 5745 5743 5740 5737 5735 5732 5727 5724 5723 5718 5713 5708 5704 5701 5698 5695 5692 5688 5683 5679 5676 5672 5669 5664
5670 5668 5669 5672 5673 5691 5714 5723 5722 5704 5716 5729 5736 5738 5739 5740 5743 5739 5736 5732 5730 5728 5727 5726 5724 5720 5716 5715 5712 5707 5702 5697 5694 5692 5688 5684 5681 5677 5673 5669 5665 5661 5657 5653
5665 5665 5664 5666 5665 5679 5704 5707 5701 5703 5712 5718 5723 5727 5727 5726 5724 5722 5719 5715 5715 5714 5713 5713 5710 5706 5703 5701 5699 5693 5687 5684 5682 5679 5675 5672 5669 5666 5661 5657 5653 5649 5645 5640
5663 5667 5667 5668 5675 5686 5692 5690 5696 5700 5702 5708 5713 5715 5715 5710 5707 5705 5702 5701 5700 5699 5699 5698 5695 5690 5687 5686 5684 5679 5674 5672 5669 5666 5662 5658 5655 5652 5649 5645 5641 5637 5633 5631
5662 5664 5659 5660 5671 5678 5683 5687 5690 5693 5695 5701 5704 5704 5703 5698 5694 5691 5689 5687 5686 5685 5684 5683 5680 5676 5671 5669 5667 5665 5662 5660 5657 5653 5649 5645 5642 5639 5635 5633 5630 5626 5621 5618
5652 5652 5651 5652 5662 5667 5672 5675 5679 5683 5687 5690 5691 5693 5691 5687 5682 5678 5675 5673 5671 5670 5668 5667 5664 5660 5656 5654 5652 5650 5648 5646 5644 5641 5638 5634 5631 5627 5621 5615 5609 5607 5599 5597
5647 5644 5642 5646 5653 5653 5656 5664 5669 5670 5672 5675 5674 5674 5674 5673 5668 5665 5661 5658 5656 5654 5652 5650 5647 5645 5642 5640 5637 5635 5634 5632 5630 5628 5626 5623 5620 5614 5609 5603 5594 5582 5580 5575